COSMOS 1814

Satellite information

Favourite Embed

Satellite Type and Status

PAYLOADIN ORBIT

Key statistics

Satellite COSMOS 1814 at a glance.

Uptime

14046

Days in orbit

Revolutions

≈ 14.4

Per day

Orbit

LEO

Low Earth Orbit

Inclination

74.1

Latest

Satellite identification and parameters

Extended collection of information and parameters for COSMOS 1814.

Object identification

Identified? True

Debris? False

Object name: COSMOS 1814

International designator: 1987-006A

Object number (NORAD): 17303

Object ID (CCSDS): 17303

Country: COMMONWEALTH OF INDEPENDENT STATES (CIS)

Current information (Y/N): Y

RCS size: LARGE

Orbital parameters

Period: 100.289 minutes

Inclination: 74.0542 deg

SMA: 7150.368 km

Apoapsis: 789.918 km

Periapsis: 754.548 km

RAAN: 173.1443 deg

Eccentricy: 0.0024733

Argument of periapsis: 355.2045 deg

Mean anomaly: 4.8867 deg

Mean motion: 14.35853586 rev/day

Mean motion (dot): 0.00000126 rev/day2

B* drag term: 0.000052269 1/REarth

Two-line elements (TLE)

Creation date: July 5, 2025, 5:45 p.m.

Reference frame: TEME

Reference center: EARTH

Epoch: July 5, 2025, 1:12 p.m. UTC

TLE line 0: 0 COSMOS 1814

TLE line 1: 1 17303U 87006A 25186.55022535 .00000126 00000-0 52269-4 0 9991

TLE line 2: 2 17303 74.0542 173.1443 0024733 355.2045 4.8867 14.35853586 12480

Live tracking on map

Real-time ground track for satellite COSMOS 1814.

In-orbit conjunctions

A list of the most updated potential collisions computed for object COSMOS 1814.

Target Orbit TCA Probability of collision Miss distance Type
TITAN 3C TRANSTAGE DEB LEO 2025-06-06 22:03:47 0.001828779 313.0 (m) DEBRIS
METEOR 2-6 DEB LEO 2025-05-12 13:59:52 0.000110492 402.0 (m) DEBRIS
FENGYUN 1C DEB SSO 2025-04-22 21:18:19 0.0004007316 174.0 (m) DEBRIS
NOAA 16 DEB SSO 2025-02-05 20:50:29 0.0003930074 51.0 (m) DEBRIS
CZ-6A DEB LEO 2025-01-02 03:31:54 0.000212275 640.0 (m) DEBRIS

Associated space launch

Military communications satellite

COSMOS 1814 was lifted into orbit during the mission ‘Kosmos-3M | Strela-2M 41’, on board a Kosmos-3M space rocket.

The launch took place on Jan. 21, 1987, 9:10 a.m. from 132/2.

For more information about the launch, click the button.

Launch to space Kosmos-3M | Strela-2M 41
Kosmos-3M | Strela-2M 41

Agency: N/A

Status: Launch Successful

Launch date: Jan. 21, 1987, 9:10 a.m. UTC

Rocket: Kosmos-3M

Launch pad: 132/2

Location: Plesetsk Cosmodrome, Russian Federation

...

Latest news about this satellite

There are no fresh news available about this satellite. Check back as we update our databases every day.


Newsletter sign-up

Weekly statistics, charts and insights to help you stay on top of the space industry.